Regional Weather Roundup
Issued by NWS

Home | Current Version | Previous Version | Text Only | Print | Product List | Glossary Off
Versions: 1 2 3 4 5 6 7 8 9 10 11 12 13 14 15 16 17 18 19 20 21 22 23 24 25 26 27 28 29 30 31 32 33 34 35 36 37 38 39 40 41 42 43 44 45 46 47 48 49 50

000
ASUS43 KBIS 181602
RWRND

NORTH DAKOTA REGIONAL WEATHER ROUNDUP
NATIONAL WEATHER SERVICE BISMARCK ND
1000 AM CST SAT NOV 18 2017

NOTE: "FAIR" INDICATES FEW OR NO CLOUDS BELOW 12,000 FEET WITH NO
SIGNIFICANT WEATHER AND/OR OBSTRUCTIONS TO VISIBILITY.


NDZ001>003-009>011-017-181700-
NORTHWEST NORTH DAKOTA

CITY           SKY/WX    TMP DP  RH WIND       PRES   REMARKS
WILLISTON      SUNNY     18  10  71 W10       30.14R WCI   6
MINOT          SUNNY     16   7  67 W16       30.08R WCI   1
$$

NDZ018>021-031>035-040>046-181700-
SOUTHWEST NORTH DAKOTA

CITY           SKY/WX    TMP DP  RH WIND       PRES   REMARKS
BISMARCK       CLOUDY    24  18  77 NW16G24   30.12R WCI  11
DICKINSON      SUNNY     17  12  80 NW12      30.09R WCI   4
GARRISON         N/A     15   9  76 NW18      30.11R WCI  -2
HETTINGER ARPT SUNNY     18  12  77 W14       30.12S WCI   4
$$

NDZ004>008-012>016-024-026-027-054-181700-
NORTHEAST NORTH DAKOTA

CITY           SKY/WX    TMP DP  RH WIND       PRES   REMARKS
GRAND FORKS    PTSUNNY   17  11  77 NW13      30.02R WCI   4
GRND FRKS AFB  SUNNY     17   9  70 NW16      30.02R WCI   2
DEVILS LAKE    SUNNY     13   8  81 NW21      30.01R WCI  -5
$$

NDZ022-023-025-028>030-036>039-047>053-181700-
SOUTHEAST NORTH DAKOTA

CITY           SKY/WX    TMP DP  RH WIND       PRES   REMARKS
FARGO          MOSUNNY   22  13  68 NW15G25   30.01R WCI   9
JAMESTOWN      SUNNY     19  12  74 NW24      30.02R WCI   2
$$




USA.gov is the U.S. government's official web portal to all federal, state and local government web resources and services.